www.pogodaiklimat.ru

Погода и климат >> Архив погоды >> Россия >> Саратовская область >> Красный Кут


ПОГОДА в Красном Куте

  • Прогноз погоды в Красном Куте
  • Монитор погоды в Красном Куте

АРХИВ ПОГОДЫ в Красном Куте

Время (UTC), дата Ветер
(напр.,м/с)
 
Видим.   Явления Облачность Т
(С)
Тd
(С)
f
(%)
Тe
(С)
Тes
(С)
Комфортность P
(гПа)
Po
(гПа)
Тmin
(С)
Tmax
(С)
R
(мм)
R24
(мм)
S
(см)
18 11.01 ЮВ 4 4000 м слаб. снег 10/10 240 м
[Frnb Ns]
-6.9 -8.2 90 -14 -14 1014.9 1008.5
21 11.01 Ю 3 4000 м слаб. снег 10/10 240 м
[Frnb Ns]
-4.5 -5.5 93 -10 -10 1010.1 1003.8
00 12.01 Ю 8-11
{13}
4000 м дымка {снег} 10/10 210 м
[Frnb Ns]
-0.3 -1.1 94 -8 -8 1006.5 1000.3
03 12.01 Ю 8-12
{14}
4000 м дымка 10/10 450 м
[Sc]
+0.8 +0.5 98 -7 -7 1004.3 998.1 -8.7 2 94
06 12.01 Ю 6
{14}
4000 м дымка 10/10 360 м
[Sc]
+0.4 -0.5 94 -6 -6 1004.3 998.1
09 12.01 Ю 5
{10}
4000 м дымка {снег, дождь} 10/10 300 м
[Frnb Ns]
+0.7 -0.3 93 -5 -5 1002.4 996.2
12 12.01 Ю 7-12
{12}
10 км слаб. дождь 10/10 240 м
[Frnb Ns]
+1.2 +0.8 97 -6 -6 1000.6 994.4
15 12.01 ЮЗ 7-10
{14}
2000 м дымка {дождь} 10/10 300 м
[Frnb Ns]
+0.3 -0.3 96 -7 -7 1000.9 994.7 +1.4 1
18 12.01 З 6
{13}
4000 м дымка {дождь} 10/10 600 м
[Sc]
-5.1 -6.4 91 -13 -13 1003.2 996.9
21 12.01 ЮЗ 6
{11}
4000 м дымка 10/10 900 м
[Sc]
-6.8 -8.2 90 -15 -15 1005.5 999.1
00 13.01 Ю 3 4000 м дымка 10/10 720 м
[Sc]
-6.3 -7.4 92 -12 -12 1005.4 999.0
03 13.01 ЮЗ 5 10 км 10/10 1200 м
[Sc]
-6.9 -8.9 86 -14 -14 1005.4 999.1 -7.9 89
06 13.01 Ю 3 10 км 10/10 1200 м
[Sc]
-7.6 -9.1 89 -13 -13 1005.7 999.3 -8.0
09 13.01 Ю 4 2000 м снег 10/10 360 м
[Sc]
-5.1 -6.4 91 -12 -12 1005.5 998.7
12 13.01 ЮЗ 4 2000 м слаб. снег 10/10 300 м
[Frnb Ns]
-4.8 -5.8 93 -11 -11 1005.0 998.7
15 13.01 ЮЗ 2 10 км {снег} 10/10 450 м
[Sc]
-6.8 -8.8 86 -11 -11 1006.2 999.8 -4.8 0.2
18 13.01 Ю 2 10 км {снег} 8/0
[Ac trans]
-7.8 -9.1 90 -12 -12 1007.0 1000.6
21 13.01 Ю 2 4000 м дымка 10/10 1500 м
[Sc]
-7.6 -8.5 93 -12 -12 1007.6 1001.2
00 14.01 Ю 2 4000 м дымка 10/10 1500 м
[Sc]
-9.6 -9.7 99 -14 -14 1008.0 1001.6
03 14.01 Ю 2 4000 м дымка 10/10 900 м
[Sc]
-8.0 -8.5 96 -13 -13 1008.1 1001.7 -10.1 89
06 14.01 Ю 2 4000 м дымка 10/10 800 м
[Sc]
-6.9 -7.7 94 -11 -11 1009.1 1002.8
09 14.01 Ю 3 10 км 10/10 1500 м
[Sc]
-5.8 -6.6 94 -12 -12 1009.2 1002.8
12 14.01 Ю 2 2000 м дымка {снег} 10/0 210 м
[]
-7.5 -8.7 91 -12 -12 1008.8 1002.4
15 14.01 ЮВ 3 4000 м дымка 10/10 540 м
[Sc]
-7.5 -8.8 90 -13 -13 1009.4 1003.0 -5.6 0.0
18 14.01 Ю 3 2000 м слаб. снег 10/10 270 м
[Frnb Ns]
-6.1 -7.2 92 -12 -12 1009.8 1003.4
21 14.01 Ю 4 2000 м слаб. снег 10/10 180 м
[Frnb Ns]
-4.2 -5.1 93 -11 -11 1009.3 1003.0
00 15.01 Ю 3 2000 м слаб. снег 10/10 180 м
[Frnb Ns]
-3.7 -4.8 92 -9 -9 1009.1 1002.8
03 15.01 Ю 5
{10}
2000 м снег 10/10 150 м
[Frnb Ns]
-1.8 -2.7 94 -8 -8 1008.2 1001.9 -7.5 0.4 87
06 15.01 Ю 7-12
{13}
2000 м снег 10/10 180 м
[Frnb Ns]
-1.6 -2.6 93 -9 -9 1007.8 1001.5
09 15.01 Ю 6-12
{13}
2000 м дымка {снег} 10/10 270 м
[Frnb Ns]
-0.9 -2.0 92 -8 -8 1007.9 1001.6
12 15.01 Ю 5-10
{12}
4000 м дымка {снег} 10/10 360 м
[Sc]
+0.1 -1.2 91 -6 -6 1008.4 1002.2
15 15.01 Ю 7-11
{11}
4000 м дымка 10/10 400 м
[Sc]
+0.3 -0.8 92 -7 -7 1009.2 1002.9 +0.4 2
18 15.01 Ю 5
{11}
4000 м дымка 10/10 360 м
[Sc]
-0.1 -1.1 93 -6 -6 1008.9 1002.7
21 15.01 Ю 4
{10}
4000 м дымка 10/10 330 м
[Sc]
-0.5 -1.6 92 -6 -6 1008.4 1002.1
00 16.01 ЮВ 4 4000 м дымка 10/10 360 м
[Sc]
-1.1 -2.2 92 -7 -7 1007.2 1001.0
03 16.01 ЮВ 5-10
{11}
4000 м дымка 10/10 360 м
[Sc]
-0.9 -2.0 92 -7 -7 1004.9 998.7 -1.3 86
06 16.01 ЮВ 5
{13}
4000 м дымка 10/10 360 м
[St]
-3.2 -4.4 91 -10 -10 1002.9 996.7 -3.2
09 16.01 ЮВ 7-13
{14}
2000 м дымка 10/10 360 м
[St]
-2.2 -3.4 91 -10 -10 1001.4 995.2
12 16.01 ЮВ 7-13
{15}
2000 м дымка 10/10 360 м
[Sc]
-1.5 -2.5 93 -9 -9 999.2 993.0
15 16.01 Ю 6-11
{14}
2000 м дымка 10/10 300 м
[Frnb Ns]
+0.5 -0.4 94 -6 -6 999.5 993.3 +0.5 0.0
18 16.01 З 8-12
{13}
4000 м дымка 10/10 450 м
[Sc]
-1.1 -2.2 92 -9 -9 1002.4 996.2
21 16.01 З 4
{12}
4000 м дымка 4/4 1500 м
[Sc]
-4.3 -5.4 92 -11 -11 1005.9 999.6
00 17.01 З 4 4000 м дымка 3/0
[Ac trans]
-8.0 -8.4 97 -15 -15 1008.3 1001.9
03 17.01 З 3 4000 м дымка 3/0
[Ac trans]
-10.0 -10.2 98 -16 -16 1010.7 1004.3 -10.0 83
06 17.01 З 2 4000 м дымка 10/4 1500 м
[Sc Ac trans Ci fib]
-13.3 -13.6 98 -18 -18 1013.7 1007.2 -13.8
09 17.01 З 2 10 км 6/0
[Ac trans]
-7.9 -9.9 86 -12 -11 1015.5 1009.0
12 17.01 З 3 10 км 3/0
[Ac trans]
-7.8 -10.0 84 -14 -13 1016.5 1010.0
15 17.01 Ю 3 10 км ясно -12.2 -12.9 95 -18 -18 1018.7 1012.2 -6.0
18 17.01 Ю 1 10 км ясно -17.0 -18.2 90 -20 -20 1019.7 1013.0
21 17.01 штиль 0 10 км ясно -19.3 -20.7 89 -19 -19 1020.3 1013.5
00 18.01 Ю 2 10 км ясно -17.3 -18.3 92 -23 -23 1020.2 1013.5
03 18.01 Ю 3 4000 м дымка 10/10 450 м
[Sc]
-11.7 -12.1 97 -18 -18 1019.4 1012.8 -22.2 83
06 18.01 Ю 3 4000 м дымка 10/10 450 м
[Sc]
-11.7 -12.1 97 -18 -18 1019.4 1012.8 -22.2 83
09 18.01 Ю 6
{10}
4000 м дымка 10/10 870 м
[Sc]
-6.9 -8.1 91 -15 -15 1017.5 1011.1
12 18.01 ЮЗ 4
{10}
10 км 10/10 1500 м
[Sc]
-5.3 -6.4 92 -12 -12 1017.1 1010.7
15 18.01 ЮЗ 4 4000 м дымка 10/10 1500 м
[Sc]
-4.3 -4.9 96 -11 -11 1017.0 1010.6 -4.3

 

Местоположение метеостанции Красный Кут (Саратовская область, Россия): широта 50.95 долгота 46.97 высота над уровнем моря 50 м.

В архиве по умолчанию представлена погода в Красном Куте за последнюю неделю. Архивные данные за месяц целиком и за предыдущие месяцы, начиная с января 2011 года, Вы можете получить, выбрав интересующий диапазон дат из раскрывающегося списка и нажав кнопку "Ввод!".


*Определитесь, кто Вы:
робот инопланетянин человек

Внимание! Время в таблицах - всемирное. Для получения местного времени необходимо прибавить поправку, которая равна 4 ч.

Смотрите также архив погоды в соседних городах и на ближайших метеорологических станциях:

Погода в Маркс (Саратовская область, Россия) (85 км)
Погода в Саратове (Саратовская область, Россия) (95 км)
Погода в Саратове ЮВ (Саратовская область, Россия) (97 км)
Погода в Новоузенске (Саратовская область, Россия) (100 км)
Погода в Палласовке (Волгоградская область, Россия) (100 км)
Погода в Ершове (Саратовская область, Россия) (104 км)
Погода в Сплавнухе (Саратовская область, Россия) (112 км)
Погода в Октябрьском Городке (Саратовская область, Россия) (130 км)
Погода в Балаково (Саратовская область, Россия) (133 км)
Погода в Александровом Гае (Саратовская область, Россия) (143 км)

Пояснения к столбцам:

Ветер - указаны скорость ветра в м/с - средняя за 10 мин, порывы в срок и между сроками (в фигурных скобках) и направление, откуда дует ветер: С - северный, СВ - северо-восточный, В - восточный, ЮВ - юго-восточный, Ю - южный, ЮЗ - юго-западный, З - западный, СЗ - северо-западный.
Видимость - горизонтальная дальность видимости в метрах или километрах. При видимости от 1 до 10 км при отсутствии осадков обычно наблюдается дымка, при ухудшении видимости до 1 км и менее - туман. В сухую погоду видимость может ухудшаться дымом, пылью или мглою.
Явления - указаны атмосферные явления, наблюдавшиеся в срок или в последний час перед сроком; фигурными скобками обозначены явления, наблюдавшиеся между сроками (за 1-3 часа до срока); квадратными скобками обозначены град или гололедные отложения с указанием их диаметра в мм.
Облачность - указаны через наклонную черту общая и нижняя облачность в баллах и высота нижней границы облаков в метрах; квадратными скобками обозначены формы облаков: Ci - перистые, Cs - перисто-слоистые, Cc - перисто-кучевые, Ac - высококучевые, As - высокослоистые, Sc - слоисто-кучевые, Ns - слоисто-дождевые, Cu - кучевые, Cb - кучево-дождевые. Подробнее классификацию облаков см. в Атласе облаков (PDF).
T - Температура воздуха - температура, измеренная на высоте 2 м над землей.
Td - Температура точки росы - температура, при понижении до которой содержащийся в воздухе водяной пар достигнет насыщения.
f - Относительная влажность воздуха - влажноcть воздуха, измеренная на высоте 2 м над землей.
Te - Эффективная температура - температура, которую ощущает одетый по сезону человек в тени. Характеристика душности погоды. При расчете учитывается влияние влажности воздуха и скорости ветра на теплоощущения человека.
Tes - Эффективная температура на солнце - температура, которую ощущает человек, с поправкой на солнечный нагрев. Характеристика знойности погоды. Зависит от высоты солнца над горизонтом, облачности и скорости ветра. Ночью, в пасмурную погоду, а также при ветре 12 м/с и более поправка равна нулю.
P - Атмосферное давление - приведенное к уровню моря атмосферное давление.
Po - Атмосферное давление - измеренное на уровне метеостанции атмосферное давление.
Tmin - Минимальная температура - минимум температуры воздуха на высоте 2 м над землей.
Tmax - Максимальная температура - максимум температуры воздуха на высоте 2 м над землей.
R - Количество осадков - Количество выпавших осадков за период времени, мм. При наведении курсора мыши на число - период времени, за который выпало указанное количество осадков.
R24 - Количество осадков - Количество выпавших осадков за 24 часа, мм.
S - Снежный покров - Высота снежного покрова, см. При наведении курсора мыши на число - состояние снежного покрова и степень покрытия местности в баллах.